St. Paul Lake Elmo, MN

8:17 PM CST on November 14, 2019 (GMT -0600)
St. Paul Lake Elmo

Weather History for K21D - September, 2019

Change the Weather History Date:

Sunday, September 1, 2019

  Actual Average (WUND) Record (WUND)
Temperature  
Mean Temperature 63 °F -  
Max Temperature 73 °F - - (-1)
Min Temperature 53 °F - - (-1)
Degree Days  
Heating Degree Days 2    
Growing Degree Days 13 (Base 50)    
Moisture  
Dew Point 59 °F    
Average Humidity 88    
Maximum Humidity 100    
Minimum Humidity 69    
Precipitation  
Precipitation 0.09 in - - ()
Sea Level Pressure  
Sea Level Pressure 30.11 in    
Wind  
Wind Speed 3 mph (South)    
Max Wind Speed 12 mph    
Max Gust Speed -    
Visibility 10 miles    
Events Rain    
Averages and records for this station are not official NWS values.
T = Trace of Precipitation, MM = Missing Value Source: NWS Daily Summary

Daily Weather History Graph

Daily Weather History Graph

Search for Another Location

Airport or City:

Astronomy

Sep. 01, 2019 Rise Set
Actual Time 6:33 AM CDT 7:48 PM CDT
Civil Twilight 6:02 AM CDT 8:19 PM CDT
Nautical Twilight 5:26 AM CDT 8:55 PM CDT
Astronomical Twilight 4:47 AM CDT 9:33 PM CDT
Moon 9:09 AM CDT (9/1) 9:29 PM CDT (9/1)
Length of Visible Light 14h 16m
Length of Day
13h 15m
Waxing Crescent, 8% of the Moon is Illuminated
Sep 1
Waxing Crescent
Sep 5
First Quarter
Sep 13
Full
Sep 21
Last Quarter
Sep 28
New

Hourly Weather History & Observations

Time (CDT) Temp. Dew Point Humidity Pressure Visibility Wind Dir Wind Speed Gust Speed Precip Events Conditions
12:15 AM 59.0 °F 55.4 °F 88% 30.21 in 10.0 mi SSE 4.6 mph - N/A   Unknown
12:35 AM 59.0 °F 55.4 °F 88% 30.21 in 10.0 mi Calm Calm - N/A   Unknown
12:55 AM 57.2 °F 55.4 °F 94% 30.21 in 10.0 mi South 3.5 mph - N/A   Unknown
12:56 AM 57.2 °F 55.4 °F 94% 30.21 in 10.0 mi South 3.5 mph - N/A   Unknown
1:18 AM 57.2 °F 55.4 °F 94% 30.21 in 10.0 mi Calm Calm - N/A   Unknown
1:36 AM 57.2 °F 55.4 °F 94% 30.21 in 10.0 mi Calm Calm - N/A   Unknown
1:56 AM 55.4 °F 53.6 °F 94% 30.20 in 10.0 mi South 3.5 mph - N/A   Unknown
2:15 AM 55.4 °F 53.6 °F 94% 30.20 in 10.0 mi Calm Calm - N/A   Unknown
2:16 AM 55.4 °F 53.6 °F 94% 30.20 in 10.0 mi Calm Calm - N/A   Unknown
2:35 AM 53.6 °F 53.6 °F 100% 30.19 in 10.0 mi South 4.6 mph - N/A   Unknown
2:39 AM 55.4 °F 53.6 °F 94% 30.19 in 10.0 mi South 4.6 mph - N/A   Unknown
2:57 AM 55.4 °F 53.6 °F 94% 30.19 in 10.0 mi South 3.5 mph - N/A   Unknown
3:15 AM 55.4 °F 53.6 °F 94% 30.19 in 10.0 mi Calm Calm - N/A   Unknown
3:35 AM 55.4 °F 55.4 °F 100% 30.18 in 10.0 mi South 3.5 mph - N/A   Unknown
3:36 AM 55.4 °F 55.4 °F 100% 30.18 in 10.0 mi South 3.5 mph - N/A   Unknown
3:55 AM 55.4 °F 55.4 °F 100% 30.17 in 10.0 mi Calm Calm - N/A   Unknown
3:56 AM 55.4 °F 55.4 °F 100% 30.17 in 10.0 mi SSW 3.5 mph - N/A   Unknown
4:18 AM 57.2 °F 55.4 °F 94% 30.16 in 10.0 mi SSE 3.5 mph - N/A   Unknown
4:36 AM 55.4 °F 55.4 °F 100% 30.16 in 10.0 mi Calm Calm - N/A   Unknown
4:56 AM 55.4 °F 53.6 °F 94% 30.17 in 10.0 mi Calm Calm - N/A   Unknown
5:15 AM 55.4 °F 53.6 °F 94% 30.16 in 10.0 mi Calm Calm - N/A   Unknown
5:16 AM 55.4 °F 55.4 °F 100% 30.16 in 10.0 mi Calm Calm - N/A   Unknown
5:35 AM 55.4 °F 55.4 °F 100% 30.16 in 10.0 mi Calm Calm - N/A   Unknown
5:39 AM 57.2 °F 55.4 °F 94% 30.16 in 10.0 mi Calm Calm - N/A   Unknown
5:58 AM 57.2 °F 55.4 °F 94% 30.15 in 10.0 mi South 4.6 mph - N/A   Unknown
6:15 AM 57.2 °F 55.4 °F 94% 30.16 in 10.0 mi SSE 4.6 mph - N/A   Unknown
6:35 AM 57.2 °F 55.4 °F 94% 30.15 in 10.0 mi SSE 3.5 mph - N/A   Unknown
6:36 AM 57.2 °F 55.4 °F 94% 30.15 in 10.0 mi SSE 3.5 mph - N/A   Unknown
6:55 AM 57.2 °F 55.4 °F 94% 30.15 in 10.0 mi SSE 4.6 mph - N/A   Unknown
6:56 AM 57.2 °F 55.4 °F 94% 30.15 in 10.0 mi SSE 4.6 mph - N/A   Unknown
7:18 AM 59.0 °F 55.4 °F 88% 30.15 in 10.0 mi South 3.5 mph - N/A   Unknown
7:36 AM 59.0 °F 55.4 °F 88% 30.15 in 10.0 mi South 4.6 mph - N/A   Unknown
7:56 AM 59.0 °F 55.4 °F 88% 30.15 in 10.0 mi South 5.8 mph - N/A   Unknown
8:15 AM 59.0 °F 55.4 °F 88% 30.15 in 10.0 mi South 4.6 mph - N/A   Unknown
8:16 AM 59.0 °F 55.4 °F 88% 30.14 in 10.0 mi South 4.6 mph - N/A   Unknown
8:35 AM 59.0 °F 55.4 °F 88% 30.14 in 10.0 mi SSE 5.8 mph - N/A   Unknown
8:57 AM 60.8 °F 55.4 °F 82% 30.14 in 10.0 mi SSE 4.6 mph - N/A   Unknown
9:16 AM 60.8 °F 55.4 °F 82% 30.14 in 10.0 mi South 5.8 mph - N/A   Unknown
9:35 AM 62.6 °F 55.4 °F 77% 30.13 in 10.0 mi SSE 5.8 mph - N/A   Unknown
9:36 AM 62.6 °F 55.4 °F 77% 30.13 in 10.0 mi SSE 6.9 mph - N/A   Unknown
9:55 AM 62.6 °F 55.4 °F 77% 30.13 in 10.0 mi South 8.1 mph - N/A   Unknown
10:18 AM 64.4 °F 55.4 °F 73% 30.12 in 10.0 mi South 11.5 mph - N/A   Unknown
10:37 AM 64.4 °F 55.4 °F 73% 30.12 in 10.0 mi South 10.4 mph - N/A   Unknown
10:56 AM 62.6 °F 57.2 °F 82% 30.12 in 5.0 mi South 10.4 mph - N/A Rain Rain
11:15 AM 60.8 °F 59.0 °F 94% 30.12 in 4.0 mi SSW 6.9 mph - N/A   Drizzle
11:35 AM 62.6 °F 59.0 °F 88% 30.12 in 7.0 mi SW 6.9 mph - 0.01 in Rain Rain
11:39 AM 60.8 °F 59.0 °F 94% 30.12 in 5.0 mi SW 8.1 mph - 0.01 in Rain Rain
11:58 AM 60.8 °F 59.0 °F 94% 30.11 in 3.0 mi South 8.1 mph - 0.08 in Rain Rain
12:15 PM 60.8 °F 59.0 °F 94% 30.11 in 10.0 mi SSE 3.5 mph - 0.01 in   Light Drizzle
12:35 PM 60.8 °F 60.8 °F 100% 30.10 in 10.0 mi Calm Calm - 0.01 in   Unknown
12:36 PM 60.8 °F 60.8 °F 100% 30.10 in 10.0 mi Calm Calm - 0.01 in   Unknown
12:58 PM 62.6 °F 60.8 °F 94% 30.09 in 10.0 mi SE 3.5 mph - 0.01 in   Unknown
1:16 PM 62.6 °F 60.8 °F 94% 30.09 in 10.0 mi SSE 4.6 mph - N/A   Unknown
1:36 PM 64.4 °F 60.8 °F 88% 30.08 in 10.0 mi SSE 5.8 mph - N/A   Unknown
1:55 PM 64.4 °F 60.8 °F 88% 30.08 in 10.0 mi SSE 3.5 mph - N/A   Unknown
1:56 PM 64.4 °F 60.8 °F 88% 30.08 in 10.0 mi SSE 3.5 mph - N/A   Unknown
2:15 PM 68.0 °F 60.8 °F 78% 30.07 in 10.0 mi South 8.1 mph - N/A   Unknown
2:37 PM 68.0 °F 62.6 °F 83% 30.07 in 10.0 mi South 4.6 mph - N/A   Unknown
2:56 PM 69.8 °F 62.6 °F 78% 30.06 in 10.0 mi South 6.9 mph - N/A   Unknown
3:15 PM 71.6 °F 62.6 °F 73% 30.06 in 10.0 mi SSW 8.1 mph - N/A   Unknown
3:16 PM 71.6 °F 62.6 °F 73% 30.06 in 10.0 mi SSW 8.1 mph - N/A   Unknown
3:35 PM 71.6 °F 60.8 °F 69% 30.05 in 10.0 mi SSW 9.2 mph - N/A   Unknown
3:59 PM 71.6 °F 62.6 °F 73% 30.05 in 10.0 mi SW 9.2 mph - N/A   Unknown
4:16 PM 73.4 °F 62.6 °F 69% 30.04 in 10.0 mi South 8.1 mph - N/A   Unknown
4:36 PM 73.4 °F 62.6 °F 69% 30.04 in 10.0 mi SSW 5.8 mph - N/A   Unknown
4:55 PM 73.4 °F 62.6 °F 69% 30.04 in 10.0 mi WSW 9.2 mph - N/A   Unknown
4:56 PM 73.4 °F 62.6 °F 69% 30.04 in 10.0 mi SW 8.1 mph - N/A   Unknown
5:15 PM 71.6 °F 62.6 °F 73% 30.05 in 10.0 mi WSW 4.6 mph - N/A Rain Light Rain
5:37 PM 71.6 °F 62.6 °F 73% 30.04 in 10.0 mi WSW 4.6 mph - N/A   Unknown
5:55 PM 71.6 °F 64.4 °F 78% 30.04 in 10.0 mi West 3.5 mph - N/A   Unknown
6:15 PM 71.6 °F 64.4 °F 78% 30.04 in 10.0 mi Calm Calm - N/A   Unknown
6:16 PM 71.6 °F 64.4 °F 78% 30.04 in 10.0 mi Calm Calm - N/A   Unknown
6:35 PM 71.6 °F 64.4 °F 78% 30.04 in 10.0 mi Calm Calm - N/A   Unknown
6:36 PM 71.6 °F 64.4 °F 78% 30.04 in 10.0 mi Calm Calm - N/A   Unknown
6:58 PM 71.6 °F 64.4 °F 78% 30.04 in 10.0 mi Calm Calm - N/A   Unknown
7:16 PM 69.8 °F 64.4 °F 83% 30.05 in 10.0 mi Calm Calm - N/A   Unknown
7:35 PM 69.8 °F 64.4 °F 83% 30.04 in 10.0 mi Calm Calm - N/A   Unknown
7:36 PM 69.8 °F 64.4 °F 83% 30.04 in 10.0 mi Calm Calm - N/A   Unknown
7:55 PM 68.0 °F 64.4 °F 88% 30.04 in 10.0 mi Calm Calm - N/A   Unknown
7:56 PM 68.0 °F 64.4 °F 88% 30.04 in 10.0 mi Calm Calm - N/A   Unknown
8:19 PM 66.2 °F 62.6 °F 88% 30.04 in 10.0 mi Calm Calm - N/A   Unknown
8:36 PM 66.2 °F 64.4 °F 94% 30.05 in 10.0 mi Calm Calm - N/A   Unknown
8:55 PM 64.4 °F 62.6 °F 94% 30.05 in 10.0 mi Calm Calm - N/A   Unknown
9:15 PM 66.2 °F 62.6 °F 88% 30.06 in 10.0 mi Calm Calm - N/A   Unknown
9:16 PM 66.2 °F 62.6 °F 88% 30.06 in 10.0 mi Calm Calm - N/A   Unknown
9:39 PM 64.4 °F 62.6 °F 94% 30.06 in 10.0 mi Calm Calm - N/A   Unknown
9:56 PM 66.2 °F 62.6 °F 88% 30.07 in 10.0 mi Calm Calm - N/A   Unknown
10:15 PM 64.4 °F 62.6 °F 94% 30.07 in 10.0 mi Calm Calm - N/A   Unknown
10:16 PM 64.4 °F 62.6 °F 94% 30.07 in 10.0 mi Calm Calm - N/A   Unknown
10:35 PM 64.4 °F 62.6 °F 94% 30.07 in 10.0 mi Calm Calm - N/A   Unknown
10:59 PM 64.4 °F 62.6 °F 94% 30.08 in 10.0 mi Calm Calm - N/A   Unknown
11:16 PM 64.4 °F 62.6 °F 94% 30.08 in 10.0 mi Calm Calm - N/A   Unknown
11:35 PM 64.4 °F 62.6 °F 94% 30.08 in 10.0 mi Calm Calm - N/A   Unknown
11:55 PM 62.6 °F 62.6 °F 100% 30.07 in 10.0 mi Calm Calm - N/A   Unknown
11:56 PM 62.6 °F 62.6 °F 100% 30.08 in 10.0 mi Calm Calm - N/A   Unknown